Regional Weather Roundup
Issued by NWS

Home | Current Version | Previous Version | Text Only | Print | Product List | Glossary Off
Versions: 1 2 3 4 5 6 7 8 9 10 11 12 13 14 15 16 17 18 19 20 21 22 23 24 25 26 27 28 29 30 31 32 33 34 35 36 37 38 39 40 41 42 43 44 45 46 47 48 49 50

727
ASUS45 KSLC 030810
RWRUT

UTAH REGIONAL WEATHER ROUNDUP
NATIONAL WEATHER SERVICE SALT LAKE CITY UT
200 AM MDT TUE MAY 03 2016

UTZ001>011-023>025-030900-

NORTHERN UTAH

CITY           SKY/WX    TMP DP  RH WIND       PRES   REMARKS
BRIGHAM CITY   CLEAR     48  36  64 NE3       30.19S
HILL AFB       CLEAR     48  32  53 SE14      30.19S
LOGAN          CLEAR     40  35  83 N6        30.20R
OGDEN          CLEAR     47  33  58 S9        30.18S
PROVO AIRPORT  CLEAR     45  32  61 E5        30.20S
SALT LAKE CITY CLEAR     52  35  52 SE7       30.19R
VERNAL         CLEAR     43  28  55 W5        30.20S
WENDOVER       CLEAR     48  36  61 NE5       30.18S
HEBER CITY     CLEAR     34  30  86 E3        30.23S

$$

UTZ012>022-026-027-030900-

SOUTHERN/CENTRAL UTAH

CITY           SKY/WX    TMP DP  RH WIND       PRES   REMARKS
BLANDING       CLEAR     40  34  81 N8        30.26F WCI  34
BRYCE CANYON   CLEAR     30  28  92 W6        30.28S WCI  24
CEDAR CITY     CLEAR     36  33  89 NW3       30.20S
DELTA          CLEAR     46  41  81 CALM      30.19S
HANKSVILLE     CLEAR     45  37  76 CALM      30.19S
MILFORD        NOT AVBL
MOAB/CYNLANDS  CLEAR     49  36  61 W5        30.14F
PRICE          CLEAR     43  31  62 NE6       30.20F
ST GEORGE      SUNNY     57  41  54 CALM      30.14R

$$

REGIONAL REPORTS     COLORADO/ARIZONA

CITY           SKY/WX    TMP DP  RH WIND       PRES   REMARKS
CRAIG, CO      CLEAR     29  23  78 CALM      30.23S
GRAND JUNCTION CLEAR     45  36  70 NE3       30.16F
RIFLE          CLEAR     40  31  70 CALM      30.20S
MONTROSE       CLEAR     43  32  65 SE8       30.22S
CORTEZ         CLEAR     35  32  88 CALM      30.20F
PAGE, AZ       CLEAR     52  40  63 CALM      30.15S
GRAND CANYON   CLEAR     32  29  88 CALM      30.23F
KINGMAN        CLEAR     55  39  54 E7        30.08F
FLAGSTAFF      CLEAR     30  30 100 CALM      30.21F

$$

REGIONAL REPORTS    NEVADA/IDAHO/WYOMING

CITY           SKY/WX    TMP DP  RH WIND       PRES   REMARKS
LAS VEGAS, NV  CLEAR     69  36  29 N7        30.01S
ELY            CLEAR     35  31  85 S10       30.24S WCI  27
ELKO           CLEAR     45  35  68 E5        30.19R
POCATELLO, ID  CLEAR     41  34  76 E3        30.19S
BURLEY         CLEAR     46  35  65 S5        30.15S
EVANSTON, WY   CLOUDY    40  25  55 S5        30.27S
ROCK SPRINGS   CLOUDY    41  20  43 CALM      30.26S
KEMMERER         N/A     36  21  55 NW6       30.26S WCI  31

$$




USA.gov is the U.S. government's official web portal to all federal, state and local government web resources and services.